EHI
7 8 10 9 6 3 1 0 0 0 0 0 0 0 0 0 0 0 0 0 0 0 0 0 0 0 0 0 0 0 0 0 0 0 0 0 0 0 0 0 0 0 0
9 9 11 10 6 2 0 0 0 0 0 0 0 0 0 0 0 0 0 0 0 0 0 0 0 0 0 0 0 0 0 0 0 0 0 0 0 0 0 0 0 0 0
9 8 9 9 6 2 0 0 0 0 0 0 0 0 0 0 0 0 0 0 0 0 0 0 0 0 0 0 0 0 0 0 0 0 0 0 0 0 0 0 0 0 0
5 5 6 7 5 2 0 0 0 0 0 0 0 0 0 0 0 0 0 0 0 0 0 0 0 0 0 0 0 0 0 0 0 0 0 0 0 0 0 0 0 0 0
2 3 5 6 4 1 0 0 0 0 0 0 0 0 0 0 0 0 0 0 0 0 0 0 0 0 0 0 0 0 0 0 0 0 0 0 0 0 0 0 0 0 0
2 3 5 6 4 1 0 0 0 0 0 0 0 0 0 0 0 0 0 0 0 0 0 0 0 0 0 0 0 0 0 0 0 0 0 0 0 0 0 0 0 0 0
3 3 3 4 2 1 0 0 0 0 0 0 0 0 0 0 0 0 0 0 0 0 0 0 0 0 0 0 0 0 0 0 0 0 0 0 0 0 0 0 0 0 0
6 3 1 1 1 0 0 0 0 0 0 0 0 0 0 0 0 0 0 0 0 0 0 0 0 0 0 0 0 0 0 0 0 0 0 0 0 0 0 0 0 0 0
7 3 0 0 0 0 0 0 0 0 0 0 0 0 0 0 0 0 0 0 0 0 0 0 0 0 0 0 0 0 0 0 0 0 0 0 0 0 0 0 0 0 0
10 5 0 0 0 0 0 0 0 0 0 0 0 0 0 0 0 0 0 0 0 0 0 0 0 0 0 0 0 0 0 0 0 0 0 0 0 0 0 0 0 0 0
21 11 2 0 0 0 0 0 0 0 0 0 0 0 0 0 0 0 0 0 0 0 0 0 0 0 0 0 0 0 0 0 0 0 0 0 0 0 0 0 0 0 0
33 21 7 1 0 0 0 0 0 0 0 0 0 0 0 0 0 0 0 0 0 0 0 0 0 0 0 0 0 0 0 0 0 0 0 0 0 0 0 0 0 0 0
38 28 14 6 3 1 0 0 0 0 0 0 0 0 0 0 0 0 0 0 0 0 0 0 0 0 0 0 0 0 0 0 0 0 0 0 0 0 0 0 0 0 0
38 31 22 15 10 5 1 0 0 0 0 0 0 0 0 0 0 0 0 0 0 0 0 0 0 0 0 0 0 0 0 0 0 0 0 0 0 0 0 0 0 0 0
33 32 31 26 19 9 2 1 0 0 0 0 0 0 0 0 0 0 0 0 0 0 0 0 0 0 0 0 0 0 0 0 0 0 0 0 0 0 0 0 0 0 0
23 27 32 30 22 12 5 2 1 0 0 0 0 0 0 0 0 0 0 0 0 0 0 0 0 0 0 0 0 0 0 0 0 0 0 0 0 0 0 0 0 0 0
16 19 23 24 19 13 7 4 2 1 0 0 0 0 0 0 0 0 0 0 0 0 0 0 0 0 0 0 0 0 0 0 0 0 0 0 0 0 0 0 0 0 0
15 14 16 17 13 9 5 3 3 1 0 0 0 0 0 0 0 0 0 0 0 0 0 0 0 0 0 0 0 0 0 0 0 0 0 0 0 0 0 0 0 0 0
13 14 16 16 13 9 6 4 3 2 1 0 0 0 0 0 0 0 0 0 0 0 0 0 0 0 0 0 0 0 0 0 0 0 0 0 0 0 0 0 0 0 0
10 14 19 20 19 17 13 8 3 2 1 0 0 0 0 0 0 0 0 0 0 0 0 0 0 0 0 0 0 0 0 0 0 0 0 0 0 0 0 0 0 0 0
9 13 19 23 24 26 23 15 6 3 2 1 0 0 0 0 0 0 0 0 0 0 0 0 0 0 0 0 0 0 0 0 0 0 0 0 0 0 0 0 0 0 0
11 13 19 24 27 29 29 20 11 7 4 2 1 1 0 0 0 0 0 0 0 0 0 0 0 0 0 0 0 0 0 0 0 0 0 0 0 0 0 0 0 0 0
13 15 21 25 28 30 31 26 18 11 7 5 4 2 1 0 0 0 0 0 0 0 0 0 0 0 0 0 0 0 0 0 0 0 0 0 0 0 0 0 0 0 0
15 17 22 26 29 31 33 30 22 14 8 4 3 2 1 0 0 0 0 0 0 0 0 0 0 0 0 0 0 0 0 0 0 0 0 0 0 0 0 0 0 0 0
14 17 21 24 27 29 29 26 20 13 8 3 1 1 0 0 0 0 0 0 0 0 0 0 0 0 0 0 0 0 0 0 0 0 0 0 0 0 0 0 0 0 0
13 16 19 20 23 24 22 20 16 11 7 3 1 0 0 0 0 0 0 0 0 0 0 0 0 0 0 0 0 0 0 0 0 0 0 0 0 0 0 0 0 0 0
Wind_Speed
13 15 17 18 18 18 17 16 16 15 14 13 13 13 13 13 14 14 15 15 16 16 17 17 17 17 17 17 17 16 15 15 16 16 16 15 16 17 18 17 14 11 16
18 17 17 18 18 18 17 16 15 14 13 13 13 13 13 14 14 15 15 16 16 17 17 17 17 17 16 16 15 14 13 12 12 11 12 12 13 16 17 16 15 11 16
19 18 17 17 17 17 17 16 15 14 13 13 13 13 13 14 14 15 15 16 16 17 17 16 16 16 16 15 14 13 11 9 7 5 7 7 10 16 16 16 16 16 16
19 17 16 17 17 18 17 16 15 14 13 13 13 13 13 14 14 15 15 16 16 16 16 15 15 15 15 14 13 11 10 9 9 9 8 8 8 14 15 15 15 15 16
17 15 17 17 18 17 17 15 14 14 13 12 12 13 13 14 15 15 15 16 15 15 15 14 14 14 14 13 11 10 9 9 9 9 8 8 6 13 15 15 15 15 15
16 15 17 16 17 17 16 15 14 14 13 12 12 13 13 14 15 15 15 15 14 14 13 13 14 13 13 12 10 9 9 9 7 7 8 7 5 12 14 14 14 14 14
16 16 16 16 17 16 16 15 14 13 13 12 12 13 14 15 15 15 14 14 13 13 12 13 13 13 12 10 9 8 10 9 7 7 7 6 7 12 13 12 13 13 13
16 16 15 16 15 15 15 14 13 13 13 12 12 14 14 15 15 14 13 13 12 12 12 12 12 11 11 9 7 7 8 8 6 9 7 5 9 11 11 11 11 11 12
16 15 13 12 13 14 14 13 12 12 11 11 12 14 13 13 13 13 12 12 11 11 11 10 10 10 9 8 5 5 6 8 3 4 7 4 8 10 10 10 10 10 10
14 14 13 11 11 10 10 12 12 11 11 11 12 12 12 11 11 11 10 10 10 10 9 9 9 8 7 5 3 3 5 6 0 4 4 5 8 8 8 8 8 8 9
12 12 12 12 11 10 10 11 10 10 10 11 10 12 10 7 7 7 9 9 8 9 8 8 7 6 5 4 2 3 5 2 2 4 4 6 6 6 5 5 6 6 7
11 11 10 11 10 10 10 8 7 7 7 7 7 8 6 5 6 8 10 9 8 7 7 6 6 5 4 3 4 4 3 3 2 3 4 7 5 3 3 3 3 4 4
10 9 9 9 9 9 7 7 5 4 5 6 9 8 4 5 6 6 4 4 5 6 4 4 4 4 4 3 3 4 3 1 1 2 5 7 5 3 2 2 2 2 2
9 9 9 9 9 9 7 5 5 4 4 4 6 6 4 3 4 5 4 5 5 4 4 4 4 5 3 3 3 3 1 0 0 2 4 8 6 4 4 4 4 3 3
9 9 9 9 9 8 7 5 5 5 4 4 4 5 5 4 3 4 3 4 4 3 4 4 3 3 2 2 2 1 1 2 1 1 3 8 8 7 6 6 6 6 6
8 9 8 8 8 7 6 5 4 4 4 4 4 4 5 4 3 3 3 3 2 2 3 3 3 2 2 1 1 1 2 3 3 2 3 5 9 9 9 9 8 8 8
8 8 8 8 8 8 7 6 4 4 4 4 4 4 4 4 4 3 2 3 2 2 3 2 2 1 1 1 2 3 3 2 2 3 3 3 5 9 10 11 10 9 9
7 8 8 7 8 8 7 6 4 4 4 4 4 4 5 5 5 4 3 3 3 3 2 2 1 1 2 2 2 3 2 2 3 4 3 3 3 4 7 10 9 9 9
7 8 9 7 7 7 6 5 5 4 4 4 4 4 4 5 5 4 3 3 3 2 2 2 2 2 2 2 2 2 2 2 3 4 4 4 3 3 3 6 9 8 7
6 7 8 8 7 6 5 4 3 3 3 3 3 4 5 4 5 4 3 3 3 2 2 2 2 2 2 2 2 3 3 4 4 4 4 3 2 2 2 2 3 4 5
6 6 8 8 7 6 5 5 4 4 3 3 3 4 4 4 5 4 3 3 3 3 3 3 3 3 3 2 1 3 4 6 6 4 3 2 1 1 2 2 1 1 1
7 6 7 8 8 7 6 5 4 4 3 3 3 3 4 4 4 3 4 3 3 3 3 3 2 2 2 2 2 1 3 3 3 3 2 2 1 2 2 3 3 3 2
6 6 6 7 7 7 7 5 4 3 2 3 3 3 3 3 3 3 3 3 2 2 3 3 2 3 3 3 3 3 2 3 2 1 0 1 2 2 2 3 3 3 3
6 5 6 6 6 7 7 6 6 5 4 4 3 3 3 3 2 2 2 2 2 1 2 2 2 2 3 3 2 3 3 2 1 2 1 0 2 2 2 3 3 3 4
7 6 5 5 6 6 6 7 7 5 4 3 4 4 4 3 3 2 2 1 1 1 2 2 2 2 2 3 3 2 2 2 3 3 3 1 1 1 2 3 3 3 4
6 5 5 5 5 5 6 6 6 6 6 5 5 5 4 3 3 3 2 1 1 1 1 1 2 2 2 3 2 2 2 2 2 3 4 3 2 1 2 3 3 3 4
Wind_Direction
131 136 138 133 131 127 124 120 116 113 110 106 102 98 94 91 90 91 93 93 92 92 91 89 87 85 83 81 80 79 79 81 81 79 72 63 61 59 58 57 60 54 58
131 137 138 134 132 129 125 122 119 116 113 109 106 102 97 95 93 94 96 95 93 92 90 88 86 86 85 84 82 82 82 82 84 88 83 67 60 61 61 59 58 59 58
131 137 138 135 133 131 128 125 123 120 116 113 110 107 101 97 97 97 97 95 93 91 89 87 87 87 86 85 84 82 76 65 58 66 84 75 62 62 62 60 59 59 57
132 140 140 137 136 133 130 129 127 123 119 115 111 109 105 101 100 98 97 95 93 91 90 89 88 88 88 86 84 79 65 43 33 58 71 66 58 61 60 59 59 59 57
134 141 136 139 137 135 133 131 128 124 120 116 113 111 109 106 102 100 98 96 94 92 92 92 91 90 90 87 82 71 47 24 28 66 75 70 58 62 60 59 59 59 58
136 133 137 140 138 137 135 133 130 125 122 120 118 116 112 109 106 104 102 101 98 96 95 94 93 92 90 86 76 57 32 16 50 69 67 65 58 64 63 62 60 59 57
134 132 142 140 140 139 137 134 131 128 126 124 122 120 117 113 111 109 108 106 104 101 98 96 94 93 91 86 71 44 22 14 74 75 71 61 62 66 64 62 61 60 57
130 134 142 140 139 139 137 134 132 131 130 129 127 123 119 118 116 114 114 113 109 104 100 98 97 94 92 85 67 35 16 21 70 86 84 69 68 69 68 66 62 60 58
131 136 142 143 140 138 136 134 133 131 130 129 127 123 119 120 121 121 118 117 114 109 104 101 101 100 96 87 67 25 1 357 25 86 90 78 73 71 70 68 65 63 60
134 140 147 149 147 143 138 135 131 129 128 124 123 124 122 124 127 128 122 118 117 115 111 107 107 108 106 102 77 351 329 325 7 95 94 93 81 75 73 69 66 65 63
140 146 152 154 154 150 146 139 133 132 131 127 127 135 138 141 140 140 126 124 123 123 122 121 123 130 136 147 185 269 301 278 100 98 102 110 98 85 78 75 71 69 68
148 152 155 157 155 151 147 147 148 148 148 154 148 160 177 162 141 130 130 134 136 138 139 147 159 173 184 191 216 244 266 251 137 125 130 131 121 108 98 93 89 82 77
156 156 158 155 152 147 147 159 157 154 165 175 160 178 174 131 125 129 141 141 149 158 166 174 190 219 221 192 187 218 238 356 44 115 141 145 148 163 178 173 160 146 123
163 161 159 154 152 150 152 157 153 153 170 164 161 172 154 139 150 158 162 170 174 184 180 186 210 214 217 198 211 234 207 218 197 118 158 164 171 195 218 221 214 211 204
167 165 162 157 154 153 150 154 157 154 162 153 152 163 149 144 164 161 164 162 180 174 168 199 223 198 201 230 230 235 285 273 255 193 165 183 186 201 220 233 232 228 225
172 167 163 160 156 154 154 159 161 154 155 143 145 167 156 156 164 153 168 160 181 169 174 194 222 184 203 237 277 261 244 244 233 227 188 194 202 207 219 231 238 239 238
170 169 170 166 163 163 164 168 160 152 155 149 157 174 168 166 156 151 173 164 181 178 184 199 243 190 225 221 271 269 257 253 248 242 223 199 201 213 222 231 238 244 247
161 167 173 175 171 169 168 167 161 163 163 155 158 170 174 174 160 159 175 181 190 182 178 184 220 217 229 223 244 256 251 244 256 259 247 222 203 199 215 225 234 241 248
164 166 168 171 173 173 171 168 168 166 164 158 157 164 173 175 164 162 180 193 189 181 181 192 204 212 231 241 254 260 263 253 242 249 253 249 226 199 188 207 220 231 244
167 166 164 168 175 172 167 163 161 167 166 156 154 162 168 170 169 171 181 197 189 176 187 196 209 223 229 238 266 270 261 256 245 238 239 239 234 212 189 173 196 223 233
167 167 168 170 172 166 162 168 168 178 169 160 162 166 172 171 175 177 180 197 193 184 195 205 204 218 230 227 259 282 267 248 240 231 219 215 224 183 132 121 112 108 155
171 174 169 171 171 168 169 169 167 164 166 167 163 172 176 172 173 180 189 193 191 189 204 215 208 204 222 197 188 243 295 302 271 229 184 166 134 81 86 82 74 65 59
171 174 172 172 169 167 162 153 145 145 147 162 172 177 182 171 173 178 190 194 198 194 206 213 206 201 220 229 200 196 223 254 319 334 136 110 107 89 80 75 69 59 57
173 166 169 168 165 163 158 159 161 165 174 181 171 168 161 156 151 154 168 179 193 200 216 224 216 219 214 232 239 226 221 217 229 288 317 62 91 83 75 71 66 60 56
163 160 166 163 166 166 164 166 170 169 172 161 150 153 158 154 148 144 150 168 191 200 216 228 235 237 225 224 221 224 241 246 224 223 246 241 72 56 67 63 66 61 54
148 148 157 161 165 164 164 166 173 173 164 160 160 161 161 154 147 142 139 141 140 152 209 234 241 244 240 239 234 218 205 214 215 215 230 222 198 140 71 52 54 60 59